Blythe, CA

12:51 PM PST on January 21, 2018 (GMT -0800)
Blythe

Weather History for KBLH - May, 2014

Change the Weather History Date:

Thursday, May 8, 2014

  Actual Average Record
Temperature  
Mean Temperature 72 °F -  
Max Temperature 87 °F 92 °F 109 °F (2001)
Min Temperature 57 °F 62 °F 51 °F (1988)
Cooling Degree Days 6    
Growing Degree Days 22 (Base 50)    
Moisture  
Dew Point 37 °F    
Average Humidity 32    
Maximum Humidity 58    
Minimum Humidity 12    
Precipitation  
Precipitation 0.00 in - - ()
Sea Level Pressure  
Sea Level Pressure 29.88 in    
Wind  
Wind Speed 6 mph (SSW)    
Max Wind Speed 13 mph    
Max Gust Speed 17 mph    
Visibility 10 miles    
Events      
Averages and records for this station are not official NWS values.
T = Trace of Precipitation, MM = Missing Value Source: NWS Daily Summary

Daily Weather History Graph

Daily Weather History Graph

Search for Another Location

Airport or City:

Trip Planner

Search our weather history database for the weather conditions in past years. The results will help you decide how hot, cold, wet, or windy it might be!

Date:

Astronomy

May. 08, 2014 Rise Set
Actual Time 5:43 AM PDT 7:27 PM PDT
Civil Twilight 5:16 AM PDT 7:54 PM PDT
Nautical Twilight 4:44 AM PDT 8:27 PM PDT
Astronomical Twilight 4:09 AM PDT 9:01 PM PDT
Moon 1:49 PM PDT (5/8) 1:59 AM PDT (5/8)
Length of Visible Light 14h 37m
Length of Day
13h 43m
Waxing Gibbous, 66% of the Moon is Illuminated
May 8
Waxing Gibbous
May 14
Full
May 21
Last Quarter
May 28
New
Jun 5
First Quarter

Hourly Weather History & Observations

Time (PDT) Temp. Dew Point Humidity Pressure Visibility Wind Dir Wind Speed Gust Speed Precip Events Conditions
1:52 AM 62.1 °F 46.0 °F 56% 29.83 in 10.0 mi South 11.5 mph - N/A   Clear
2:52 AM 63.0 °F 46.0 °F 54% 29.84 in 10.0 mi West 5.8 mph - N/A   Clear
3:52 AM 61.0 °F 44.1 °F 54% 29.85 in 10.0 mi Calm Calm - N/A   Clear
4:52 AM 59.0 °F 44.1 °F 58% 29.86 in 10.0 mi Calm Calm - N/A   Clear
5:52 AM 57.0 °F 42.1 °F 57% 29.88 in 10.0 mi Calm Calm - N/A   Clear
6:52 AM 59.0 °F 43.0 °F 55% 29.90 in 10.0 mi NE 3.5 mph - N/A   Clear
8:52 AM 66.9 °F 45.0 °F 45% 29.94 in 10.0 mi Calm Calm - N/A   Clear
9:52 AM 72.0 °F 46.0 °F 40% 29.94 in 10.0 mi Calm Calm - N/A   Clear
11:52 AM 79.0 °F 35.1 °F 20% 29.94 in 10.0 mi Calm Calm - N/A   Clear
12:52 PM 82.0 °F 34.0 °F 18% 29.92 in 10.0 mi SSW 8.1 mph - N/A   Clear
2:52 PM 84.9 °F 32.0 °F 15% 29.89 in 10.0 mi South 11.5 mph - N/A   Clear
3:52 PM 86.0 °F 28.0 °F 12% 29.87 in 10.0 mi SSE 12.7 mph 17.3 mph N/A   Clear
5:52 PM 84.9 °F 30.0 °F 14% 29.85 in 10.0 mi SE 11.5 mph - N/A   Clear
6:52 PM 82.9 °F 37.9 °F 20% 29.85 in 10.0 mi SSE 10.4 mph - N/A   Clear
7:52 PM 82.0 °F 30.0 °F 15% 29.86 in 10.0 mi SW 9.2 mph - N/A   Clear
8:52 PM 80.1 °F 30.0 °F 16% 29.88 in 10.0 mi WSW 11.5 mph - N/A   Clear
9:52 PM 77.0 °F 30.0 °F 18% 29.89 in 10.0 mi SW 4.6 mph - N/A   Clear
10:52 PM 75.0 °F 28.0 °F 18% 29.90 in 10.0 mi WSW 8.1 mph - N/A   Clear
11:52 PM 73.0 °F 30.9 °F 21% 29.91 in 10.0 mi West 9.2 mph - N/A   Clear